星链-5961 (STARLINK-5961 )

导读 | 豆包AI

STARLINK-5961是美国SpaceX公司星链(Starlink)低轨卫星互联网星座的一员,于2023年6月12日由猎鹰9号火箭成功发射升空,属于星链V2批次迷你卫星。作为星链全球组网的组成部分,它运行在近地轨道,为全球偏远地区提供高速低延迟互联网接入,助力SpaceX实现覆盖全球的卫星宽带服务目标,单星设计寿命超5年。

基本信息
目录编号:
56914
目录名称:
STARLINK-5961
国际标识:
2023-083AQ
轨道中心:
EARTH
卫星名称:
星链-5961
卫星全名:
星链-5961 (STARLINK-5961 )
卫星状态:
在轨 (已飞行1053 天)
发射日期:
2023-06-12 UTC
国别 :
美国 (US)
星等 :
--
轨道信息
数据来源 国际轨道数据
星历时间: 2026-04-29T20:01:13+0800
20小时前
查看轨道信息
半长轴: 6861.193km
偏心率: 0.0000866
轨道倾角: 43.001°
近地点辐角 278.404°
升交点赤经 143.327°
平近点角 81.671°
近地点: 482.461km
远地点: 483.651km
周期: 94.267分钟
每日圈数: 15.27578
详细信息
固有亮度:
5
最大亮度:
2.4
卫星平台:
Starlink v1.5
覆盖范围:
全球
运营商:
太空探索技术公司
运营商所在国:
美国
制造商(研发单位):
太空探索技术公司
制造商所在国:
美国
使用方式:
暂无
卫星简介
星链(Starlink)计划是由太空探索技术公司(SpaceX)提出的一个巨型低轨卫星互联网星座项目,计划在2019年至2024年间在太空搭建由约1.2万颗卫星组成的“星链”网络,其中1584颗将部署在地球上空550千米处的近地轨道,并从2020年开始工作。该卫星仍在工作。
2D轨道图
3D轨道图
轨道高度分析图
轨道倾角分析图
轨道综合分析图
查看轨道综合分析图